Laramie, WY

1:42 AM MDT on April 22, 2018 (GMT -0600)
Laramie Regional

Weather History for KLAR - February, 2014

Change the Weather History Date:

Wednesday, February 5, 2014

  Actual Average Record
Temperature  
Mean Temperature -12 °F -  
Max Temperature -5 °F 34 °F 52 °F (1978)
Min Temperature -20 °F 10 °F -33 °F (1989)
Degree Days  
Heating Degree Days 77    
Month to date heating degree days 306  
Moisture  
Dew Point -16 °F    
Average Humidity 80    
Maximum Humidity 89    
Minimum Humidity 70    
Precipitation  
Precipitation T in - - ()
Month to date precipitation T  
Year to date precipitation 0.68  
Sea Level Pressure  
Sea Level Pressure 30.25 in    
Wind  
Wind Speed 6 mph (WNW)    
Max Wind Speed 18 mph    
Max Gust Speed 21 mph    
Visibility 5 miles    
Events Snow    
T = Trace of Precipitation, MM = Missing Value Source: NWS Daily Summary

Daily Weather History Graph

Daily Weather History Graph

Search for Another Location

Airport or City:

Astronomy

Feb. 05, 2014 Rise Set
Actual Time 7:09 AM MST 5:24 PM MST
Civil Twilight 6:40 AM MST 5:53 PM MST
Nautical Twilight 6:07 AM MST 6:26 PM MST
Astronomical Twilight 5:35 AM MST 6:58 PM MST
Moon 10:21 AM MST (2/5) No Moon Set
Length of Visible Light 11h 12m
Length of Day
10h 14m
Waxing Crescent, 40% of the Moon is Illuminated
Feb 5
Waxing Crescent
Feb 6
First Quarter
Feb 14
Full
Feb 22
Last Quarter
Mar 1
New

Hourly Weather History & Observations

Time (MST) Temp. Windchill Dew Point Humidity Pressure Visibility Wind Dir Wind Speed Gust Speed Precip Events Conditions
12:34 AM -16.6 °F -26.8 °F -20.2 °F 84% 30.00 in 10.0 mi WSW 3.5 mph - N/A   Mostly Cloudy
12:53 AM -16.1 °F -30.6 °F -20.0 °F 82% 30.39 in 10.0 mi SW 5.8 mph - N/A   Mostly Cloudy
1:53 AM -18.0 °F -30.9 °F -22.0 °F 82% 30.43 in 10.0 mi SSE 4.6 mph - N/A   Clear
2:53 AM -15.0 °F -35.9 °F -20.0 °F 78% 30.41 in 10.0 mi South 11.5 mph - N/A   Clear
3:53 AM -15.0 °F -34.8 °F -20.0 °F 78% 30.42 in 6.0 mi South 10.4 mph - N/A   Haze
4:53 AM -18.0 °F -33.0 °F -23.1 °F 78% 30.44 in 7.0 mi SSE 5.8 mph - N/A   Mostly Cloudy
5:53 AM -18.9 °F -34.0 °F -23.1 °F 81% 30.47 in 6.0 mi SSE 5.8 mph - N/A   Clear
6:42 AM -20.2 °F -30.9 °F -23.8 °F 83% 30.00 in 1.8 mi East 3.5 mph - N/A   Partly Cloudy
6:53 AM -18.0 °F - -22.0 °F 82% 30.49 in 4.0 mi Calm Calm - N/A   Partly Cloudy
7:21 AM -18.4 °F -28.9 °F -23.8 °F 76% 30.00 in 1.8 mi NE 3.5 mph - N/A   Haze
7:34 AM -18.4 °F - -22.0 °F 84% 30.00 in 3.0 mi Calm Calm - N/A   Partly Cloudy
7:53 AM -17.0 °F -27.2 °F -22.0 °F 78% 30.50 in 5.0 mi North 3.5 mph - N/A   Haze
8:53 AM -15.0 °F -25.0 °F -18.9 °F 82% 30.52 in 10.0 mi NNW 3.5 mph - N/A   Clear
9:53 AM -14.1 °F -26.3 °F -18.0 °F 82% 30.53 in 10.0 mi NNW 4.6 mph - 0.00 in   Clear
10:53 AM -11.9 °F -28.7 °F -18.0 °F 74% 30.53 in 5.0 mi North 8.1 mph - N/A   Haze
11:53 AM -9.0 °F -26.4 °F -14.1 °F 79% 30.50 in 5.0 mi NNW 9.2 mph - N/A   Haze
12:53 PM -7.1 °F -19.9 °F -13.0 °F 75% 30.46 in 3.0 mi NW 5.8 mph - 0.00 in Snow Light Snow
12:57 PM -7.6 °F -20.6 °F -13.0 °F 77% 29.98 in 1.8 mi NW 5.8 mph - 0.00 in Snow Light Snow
1:26 PM -5.8 °F -14.5 °F -11.2 °F 77% 29.98 in 1.0 mi NNW 3.5 mph - 0.00 in Snow Light Snow
1:53 PM -7.1 °F - -11.0 °F 83% 30.46 in 3.0 mi Calm Calm - 0.00 in   Overcast
2:06 PM -7.6 °F - -11.2 °F 84% 29.97 in 6.0 mi Calm Calm - N/A   Overcast
2:53 PM -6.0 °F - -11.0 °F 79% 30.43 in 7.0 mi Calm Calm - N/A   Overcast
3:08 PM -5.8 °F - -11.2 °F 77% 29.97 in 2.0 mi Calm Calm - N/A   Haze
3:22 PM -5.8 °F - -11.2 °F 77% 29.97 in 1.5 mi Calm Calm - 0.00 in Snow Light Snow
3:30 PM -5.8 °F - -9.4 °F 84% 29.97 in 1.2 mi Calm Calm - 0.00 in Snow Light Snow
3:53 PM -5.1 °F - -9.9 °F 80% 30.42 in 2.0 mi Calm Calm - 0.00 in   Haze
4:12 PM -5.8 °F - -9.4 °F 84% 29.97 in 3.0 mi Calm Calm - N/A   Haze
4:53 PM -6.0 °F - -11.9 °F 75% 30.44 in 9.0 mi Calm Calm - N/A   Mostly Cloudy
5:05 PM -7.6 °F - -11.2 °F 84% 29.97 in 3.0 mi Calm Calm - N/A   Overcast
5:20 PM -7.6 °F - -11.2 °F 84% 29.97 in 5.0 mi Calm Calm - N/A   Overcast
5:53 PM -9.9 °F -24.9 °F -15.0 °F 78% 30.47 in 10.0 mi South 6.9 mph - N/A   Overcast
6:53 PM -13.0 °F -32.4 °F -18.0 °F 78% 30.46 in 10.0 mi SSE 10.4 mph - N/A   Clear
7:53 PM -11.0 °F -34.9 °F -16.1 °F 78% 30.42 in 10.0 mi South 17.3 mph - N/A   Clear
8:53 PM -11.9 °F -29.9 °F -17.0 °F 78% 30.40 in 10.0 mi SSE 9.2 mph - N/A   Scattered Clouds
9:53 PM -13.0 °F -30.0 °F -18.0 °F 78% 30.39 in 10.0 mi SSE 8.1 mph - N/A   Clear
10:53 PM -9.0 °F -20.4 °F -15.0 °F 75% 30.35 in 6.0 mi West 4.6 mph - 0.00 in Snow Light Snow
11:29 PM -11.2 °F -29.0 °F -16.6 °F 77% 29.90 in 1.8 mi North 9.2 mph - 0.00 in Snow Light Snow
11:42 PM -11.2 °F -30.1 °F -16.6 °F 77% 29.90 in 0.8 mi NNW 10.4 mph - 0.00 in Snow Light Snow
11:51 PM -11.2 °F -30.1 °F -16.6 °F 77% 29.90 in 0.5 mi NNW 10.4 mph - 0.00 in Snow Snow
11:53 PM -11.9 °F -31.0 °F -17.0 °F 78% 30.36 in 0.8 mi NNW 10.4 mph - 0.00 in Snow Light Snow